Karymskoye, Russia
Current Conditions -  °F | °C
As of 9:30 AM on Sunday 26 Oct 2014 (Local Time) from UIAA Reporting Station
Few Clouds Few Clouds  
Wind Chill:   Ceiling: Unl
Heat Index:   Visibility: 6mi
Dew Point:   Wind: 4mph
Humidity: 67%   Direction: NA
Pressure: 30.53"   Gusts: NA
Location:  51.62°N, 114.35°E
Report Text: UIAA 260030Z VRB02MPS 9999 FEW200 M13/M18 Q1034 NOSIG RMKQFE716 29CLRD70
Loading
Personal Weather Stations






























Interactive Weather Map
Tropical Storm Tracking
New forecast layout! Learn more

10-Day Weather Forecast

Advertisements
Track Severe Weather on mobile